Temperature
22 23 25 25 25 25 24 22 21 22 22 21 21 21 21 22 22 22 22 22 22 22 22 22 22 22 22 22 21 21 21 20 20 20 20 20 19 19 19 19 19 18 18 18
22 24 24 24 25 25 24 24 23 22 21 21 21 21 21 21 21 21 21 21 21 22 22 22 22 22 22 21 21 21 21 20 20 20 20 19 19 19 19 19 18 18 18 18
20 22 23 22 23 23 23 23 22 21 20 20 19 19 20 20 20 20 20 20 20 21 21 22 22 21 21 21 21 21 21 20 20 20 19 19 19 19 19 18 18 18 18 18
18 21 21 21 22 23 23 22 21 21 20 20 19 20 20 20 20 20 20 20 20 20 21 21 21 21 21 21 20 20 20 20 19 19 19 19 19 18 18 18 18 18 18 17
17 19 20 21 22 23 22 20 20 20 20 20 20 20 19 20 20 20 20 20 20 20 20 20 20 20 20 20 19 19 20 19 19 19 19 18 18 18 18 18 18 17 17 17
17 19 19 20 22 23 21 19 19 19 19 19 19 17 18 19 19 19 19 20 19 19 20 20 19 19 20 19 19 19 19 19 19 19 19 18 18 18 18 17 17 17 17 17
17 18 18 20 21 22 20 18 19 19 19 19 18 18 18 19 19 19 19 19 19 19 19 19 19 19 19 19 19 19 19 19 18 18 18 18 18 17 17 17 17 17 17 17
16 17 18 19 19 18 17 18 19 19 19 18 18 18 18 18 19 19 19 19 19 19 18 19 19 18 18 18 18 18 18 18 18 18 18 17 17 17 17 17 16 16 16 16
15 16 17 19 18 19 19 18 18 18 18 18 18 17 18 18 18 18 18 18 18 18 18 18 18 18 18 18 18 18 17 17 17 17 17 17 17 17 16 16 16 16 16 16
15 16 17 18 19 19 19 18 18 18 18 18 17 17 17 17 17 17 17 17 17 18 18 18 18 18 18 17 17 17 17 17 17 17 16 16 16 16 16 15 15 15 15 15
15 15 17 17 18 18 18 18 18 18 17 17 17 17 17 17 17 17 17 17 17 17 17 17 17 17 17 17 17 17 16 16 16 16 16 16 16 15 15 15 15 15 15 15
14 15 15 16 17 17 18 17 17 17 17 17 17 16 16 16 16 16 16 16 16 16 16 16 16 16 16 16 16 16 16 16 15 15 15 15 15 15 15 15 15 15 15 15
17 17 17 17 17 17 17 17 17 17 17 16 16 16 16 16 16 16 16 16 16 16 16 16 16 16 16 16 15 16 15 15 15 15 15 15 15 15 15 14 14 14 14 14
17 16 16 16 16 16 16 16 16 16 16 16 15 15 15 15 15 15 15 15 15 15 15 15 15 15 15 15 15 15 15 15 15 14 14 14 14 14 14 14 14 14 14 14
16 16 16 16 16 16 16 15 15 15 15 15 15 15 15 14 14 14 14 14 14 15 15 15 15 15 15 14 14 14 14 14 14 14 14 14 14 14 13 13 13 13 13 13
15 15 15 15 15 15 15 15 14 14 14 14 14 14 14 14 14 14 14 14 14 14 14 14 14 14 14 14 14 14 14 14 14 14 13 13 13 13 13 13 13 13 13 13
15 14 14 14 14 14 14 14 14 14 14 14 14 14 14 14 14 14 13 13 13 13 13 13 13 13 13 13 14 14 13 13 13 13 13 13 13 13 13 13 12 12 12 12
15 14 14 14 14 14 13 13 13 13 13 13 13 13 13 13 13 13 13 13 13 13 13 13 13 13 13 13 13 13 13 13 13 13 12 12 12 12 12 12 12 12 12 12
14 14 14 14 13 13 13 13 13 13 12 12 12 12 12 12 12 12 12 12 12 12 12 12 12 13 13 13 12 12 12 12 12 12 12 12 12 12 12 12 12 12 12 11
14 13 13 13 13 13 13 13 12 12 12 12 12 12 12 12 12 12 12 12 12 12 12 12 12 12 12 12 12 12 12 12 12 12 12 11 11 11 11 11 11 11 11 11
13 13 13 13 13 13 12 12 12 12 12 12 12 12 12 12 11 11 11 11 11 11 11 12 12 12 12 12 12 12 11 11 11 11 11 11 11 11 11 11 11 11 11 11
12 13 13 12 12 12 12 12 12 12 12 12 12 12 11 11 11 11 11 11 11 11 11 11 11 11 11 11 11 11 11 11 11 11 11 11 10 11 11 11 11 11 10 10
12 12 12 12 12 12 12 12 12 11 11 11 11 11 11 11 11 11 11 11 11 11 11 11 11 11 11 11 11 11 11 11 10 10 10 10 10 10 10 10 10 10 10 10
12 12 12 12 12 12 11 11 11 11 11 11 11 11 11 11 11 11 11 11 11 11 11 11 11 11 11 11 11 10 10 10 10 10 10 10 10 10 10 10 10 10 9 9
11 11 11 11 11 11 11 11 11 11 11 11 11 11 11 11 11 10 10 10 10 10 10 10 10 10 10 10 10 10 10 10 10 9 9 9 9 9 9 9 9 9 9 9
11 11 11 11 11 11 11 11 11 11 10 10 10 10 10 10 10 10 10 10 10 10 10 10 10 10 10 9 9 9 9 9 9 9 9 9 9 9 9 9 8 8 8 8
11 11 11 11 11 11 10 10 10 10 10 10 10 10 10 10 10 10 10 10 10 10 10 9 9 9 9 9 9 9 9 9 9 8 8 8 8 8 8 8 8 8 8 8
Wind_Speed
4 4 2 3 4 2 1 4 6 5 5 5 5 6 6 6 7 6 5 5 6 6 5 5 5 5 6 6 6 7 7 7 7 7 6 5 4 4 3 4 4 3 3 3
3 2 3 4 4 2 2 1 3 4 1 3 1 4 6 6 7 6 4 3 4 4 5 5 6 6 6 6 6 6 6 6 6 5 5 5 4 4 3 4 4 3 4 4
3 4 4 4 3 2 2 2 4 3 3 2 4 5 5 6 7 6 5 3 2 3 4 4 6 6 6 5 5 6 6 5 4 5 5 5 5 5 5 4 4 4 3 3
1 3 2 6 2 4 6 5 4 3 3 6 6 4 3 4 6 5 3 2 2 2 1 1 3 4 4 4 5 5 4 3 3 4 4 4 5 5 5 4 4 4 4 4
3 2 3 4 4 1 3 4 4 6 6 6 6 6 4 2 4 3 3 2 2 1 2 2 3 4 5 5 4 4 3 3 4 4 4 4 4 5 4 4 4 4 3 4
3 3 4 5 6 3 5 2 4 6 6 5 6 3 2 2 2 2 2 2 2 1 2 3 2 3 4 4 4 4 4 4 4 4 4 4 4 4 3 3 4 4 3 3
3 3 4 5 5 4 2 4 1 3 5 3 2 3 3 1 1 1 1 1 2 2 1 1 2 4 3 3 3 5 4 3 2 3 4 4 4 3 3 3 3 3 3 3
3 2 5 5 5 3 4 2 2 2 3 3 2 2 1 1 1 1 1 1 2 2 1 0 2 4 3 3 4 2 2 3 3 3 3 3 3 2 2 3 3 3 3 3
5 5 4 1 3 3 3 3 1 2 2 2 2 1 1 1 1 1 0 1 2 3 1 1 0 3 3 4 2 2 2 3 3 3 2 2 3 3 3 3 3 3 3 3
2 1 1 2 2 2 3 3 2 2 2 3 2 1 1 1 1 1 1 0 1 2 1 1 1 2 4 3 2 2 2 3 3 2 2 1 2 3 3 3 3 3 4 4
1 2 3 4 3 2 3 4 4 3 2 2 2 1 0 1 1 1 1 1 1 2 2 2 2 2 2 2 2 2 1 2 2 2 2 2 2 2 3 4 5 5 5 5
4 4 3 3 2 2 3 3 2 2 2 1 1 1 1 2 2 1 1 1 1 1 1 1 1 1 1 1 2 2 1 2 2 2 2 2 2 1 1 2 2 4 5 5
4 3 2 3 1 2 2 1 1 0 1 2 2 1 1 2 2 1 1 1 2 1 1 2 1 1 2 2 2 2 3 3 2 2 3 3 3 3 2 2 2 0 2 3
0 1 2 2 2 2 2 2 2 2 2 1 1 1 1 1 1 1 2 3 2 1 1 1 1 1 2 2 2 2 3 3 2 3 3 3 3 3 3 3 1 2 2 1
2 1 3 3 2 2 2 2 2 3 3 2 1 1 1 1 1 2 2 2 1 0 1 1 1 2 2 2 2 2 3 2 2 2 2 2 2 2 2 3 2 1 1 2
2 2 1 1 2 2 1 1 1 2 2 2 2 1 1 1 2 1 2 1 0 1 2 2 2 3 2 2 2 2 2 2 1 1 2 1 1 1 2 2 2 2 2 1
1 2 2 2 3 3 2 2 2 3 2 2 2 2 1 0 0 1 1 1 1 1 1 1 3 3 2 1 1 1 1 1 0 0 1 1 1 2 2 2 2 2 2 3
4 4 4 4 3 3 2 2 2 2 2 2 1 1 1 1 1 1 1 1 2 2 2 2 2 2 2 2 1 0 0 0 0 0 0 0 1 1 2 1 2 2 1 1
1 1 1 1 1 1 1 2 2 2 1 0 1 0 1 2 2 1 1 1 1 1 3 3 3 2 2 2 3 1 1 1 2 1 0 1 1 1 1 1 1 2 2 2
2 1 1 1 1 0 1 1 0 1 1 1 2 1 1 0 0 1 1 0 1 2 2 1 1 2 1 1 3 2 2 1 1 1 1 1 1 1 1 1 2 2 1 2
2 1 1 1 2 1 1 0 1 1 0 1 2 1 1 0 1 1 1 0 3 2 1 1 1 1 1 1 2 2 1 1 2 2 1 2 2 1 1 0 1 2 2 1
1 1 1 1 1 1 1 0 1 1 1 1 1 2 2 1 0 0 1 1 2 2 1 0 0 0 1 2 2 2 1 1 2 2 2 2 2 1 1 1 1 2 2 1
1 2 2 1 1 0 2 1 0 1 1 0 1 1 2 1 1 1 1 2 1 1 0 1 1 1 2 2 2 2 2 2 2 3 2 1 1 2 2 2 2 2 2 1
2 2 2 1 1 2 1 2 1 1 1 1 0 1 1 1 0 1 1 1 0 1 1 1 2 3 4 3 3 3 3 2 2 2 3 3 2 3 3 2 2 2 2 2
1 2 3 2 2 1 0 1 2 3 3 2 3 2 1 1 1 1 1 1 2 3 2 3 5 5 4 4 4 3 3 2 2 2 3 3 3 3 3 3 3 3 3 2
1 1 1 1 0 0 1 1 2 1 2 2 2 2 2 2 2 2 2 2 3 3 3 2 3 4 3 3 3 3 3 3 3 4 4 4 4 3 3 3 3 3 3 2
2 1 1 2 2 1 1 2 2 1 2 2 1 1 2 3 3 3 3 3 3 3 3 2 3 4 4 4 3 3 4 4 3 3 3 3 3 3 3 3 3 2 3 3
Wind_Direction
220 250 304 318 309 323 94 180 179 198 184 218 203 175 150 125 114 102 117 127 140 142 147 149 155 163 169 173 175 173 172 182 192 193 194 197 199 196 196 198 206 207 210 223
336 307 356 350 347 7 11 121 138 123 212 262 162 100 109 115 117 116 116 114 120 128 136 150 161 167 168 172 174 167 173 188 192 185 186 190 197 196 200 206 208 205 217 224
305 315 20 337 327 70 51 42 127 161 222 127 90 108 137 136 127 128 130 116 93 124 153 167 168 161 164 174 167 167 177 186 190 186 190 196 200 198 207 210 207 211 218 218
100 37 219 240 279 105 92 51 72 99 108 121 135 140 134 123 116 107 102 107 113 102 112 106 127 144 149 146 152 156 163 173 186 196 202 202 197 203 208 205 207 214 223 226
129 165 271 309 326 26 105 31 43 91 87 85 96 76 56 79 104 110 121 136 130 131 128 119 113 129 127 134 144 150 163 176 185 191 196 196 202 211 210 202 214 217 223 224
134 154 216 256 301 324 93 30 7 85 96 94 79 74 287 342 71 71 67 60 60 61 84 107 130 132 130 151 156 178 195 201 198 192 193 203 213 215 208 203 212 213 224 227
157 193 253 279 312 27 96 230 278 107 119 109 116 189 223 316 24 71 68 60 72 73 93 151 144 135 145 166 197 213 205 198 202 203 204 206 209 210 206 209 215 219 225 237
144 172 248 314 34 94 202 222 139 103 114 103 114 126 107 58 32 27 51 59 96 95 56 219 119 126 151 197 219 207 185 189 204 212 214 213 204 212 209 201 213 225 228 246
174 203 240 344 115 160 143 113 97 102 96 98 91 72 35 56 60 340 232 166 120 118 88 341 167 146 186 226 203 162 176 202 214 217 216 203 194 206 216 213 219 231 230 240
81 283 356 29 54 73 102 121 130 125 125 113 109 98 8 355 331 321 328 248 163 128 142 269 269 211 213 218 174 165 192 218 214 215 225 223 208 206 209 217 221 226 228 235
87 285 357 359 3 36 50 60 62 62 95 136 127 114 175 291 303 299 306 292 234 194 205 227 254 236 221 191 159 175 207 227 222 217 214 221 224 221 219 225 215 213 221 218
223 236 202 260 299 65 78 71 73 49 6 351 154 208 253 259 258 268 260 265 273 239 210 215 221 247 221 187 172 177 222 252 236 223 218 211 217 275 278 246 246 222 218 213
215 242 229 260 306 39 73 57 29 279 258 289 288 243 237 248 251 263 246 226 237 247 227 214 221 244 245 212 199 204 217 229 232 220 214 212 212 211 238 325 8 293 241 226
247 69 355 315 302 335 2 353 343 327 314 288 283 275 255 257 254 262 251 239 233 244 259 221 214 268 269 231 219 232 230 224 226 225 218 212 218 222 213 206 246 318 345 326
319 264 239 268 304 325 342 4 2 333 325 319 299 265 276 269 251 260 264 253 255 312 287 274 263 287 287 238 228 239 239 239 231 226 220 210 210 220 219 205 193 199 12 10
297 332 323 299 285 295 314 309 283 291 295 299 297 270 229 216 239 266 275 260 214 263 287 292 283 278 273 249 235 237 246 264 250 217 210 197 196 211 220 205 180 179 182 168
233 282 281 277 277 283 281 265 245 257 268 270 274 263 238 205 39 332 298 277 201 184 257 288 295 306 317 318 288 252 264 278 302 200 188 185 191 213 216 203 193 191 194 186
214 230 231 223 238 262 285 294 290 291 278 259 261 281 241 171 196 251 278 12 40 21 354 324 320 333 353 12 20 295 219 61 123 179 160 239 174 202 205 196 190 168 150 134
247 234 250 257 256 253 271 284 298 308 302 359 118 132 203 188 178 197 166 107 94 353 320 329 345 9 0 12 48 46 59 63 48 40 78 86 90 113 165 158 152 144 139 141
21 9 10 350 338 304 293 288 311 355 15 72 84 70 41 341 217 141 123 155 244 244 263 334 33 27 5 32 65 63 63 75 67 70 76 85 81 72 94 114 125 128 137 163
10 20 45 1 320 319 308 239 142 145 160 93 119 143 160 169 115 113 121 313 303 290 275 70 72 12 26 64 59 60 58 91 82 71 81 88 86 72 59 119 137 150 160 165
28 36 39 5 346 339 333 139 142 139 94 40 94 140 138 147 245 201 220 226 258 267 216 175 190 117 85 81 78 63 43 87 88 85 83 91 99 85 60 81 111 121 130 134
357 356 345 316 246 194 3 4 156 152 146 133 137 154 165 194 208 191 241 272 254 270 235 233 233 111 95 91 87 85 72 71 87 95 96 91 86 78 75 82 91 98 101 105
337 337 334 339 73 75 28 340 17 50 70 72 220 190 164 142 10 251 205 209 172 56 62 62 84 79 73 72 71 72 71 64 70 80 82 81 79 73 66 69 76 75 78 84
340 347 357 14 38 44 281 23 50 50 58 43 21 13 10 106 160 198 136 128 104 84 70 64 72 76 76 73 70 66 63 59 69 76 80 77 75 76 70 67 71 69 70 76
330 328 314 308 225 172 131 103 89 73 69 57 29 16 16 29 68 84 94 91 79 78 77 70 69 75 80 77 71 70 68 61 63 68 73 72 70 69 66 63 64 68 68 74
341 338 347 3 3 36 94 103 105 102 108 107 73 23 41 60 65 66 71 75 74 71 67 62 68 75 76 71 68 68 67 64 65 67 70 73 70 65 59 63 67 70 75 77
Height
1487 1482 1479 1479 1479 1477 1484 1490 1499 1496 1493 1488 1484 1483 1483 1484 1485 1488 1490 1492 1493 1493 1494 1496 1498 1499 1501 1502 1504 1505 1507 1508 1509 1510 1511 1512 1513 1514 1514 1515 1515 1516 1516 1516
1487 1480 1479 1481 1478 1477 1479 1481 1486 1489 1491 1483 1482 1483 1484 1485 1486 1488 1490 1491 1492 1492 1493 1494 1495 1497 1499 1500 1502 1503 1504 1505 1506 1507 1509 1509 1510 1511 1511 1512 1512 1512 1512 1512
1499 1487 1485 1494 1484 1481 1482 1481 1484 1492 1489 1483 1484 1484 1485 1486 1486 1487 1489 1490 1491 1491 1492 1492 1493 1495 1496 1498 1499 1501 1501 1502 1503 1504 1505 1506 1507 1507 1507 1508 1508 1508 1508 1508
1502 1497 1507 1494 1477 1476 1480 1482 1481 1482 1482 1482 1483 1485 1486 1486 1487 1487 1489 1490 1490 1491 1491 1492 1492 1494 1495 1496 1497 1498 1499 1499 1500 1501 1502 1502 1503 1504 1504 1504 1504 1504 1504 1504
1506 1507 1501 1488 1479 1478 1482 1488 1483 1483 1484 1484 1485 1486 1488 1488 1488 1489 1489 1489 1489 1489 1490 1491 1491 1492 1492 1494 1495 1496 1496 1497 1497 1498 1499 1499 1500 1500 1500 1500 1500 1500 1501 1500
1502 1505 1509 1494 1479 1475 1479 1494 1486 1484 1485 1485 1484 1491 1491 1489 1488 1489 1488 1488 1488 1488 1488 1488 1489 1490 1490 1491 1492 1492 1493 1494 1494 1495 1496 1496 1496 1496 1496 1497 1496 1497 1496 1496
1501 1504 1499 1484 1477 1475 1494 1496 1487 1485 1485 1485 1486 1488 1488 1487 1487 1487 1487 1487 1487 1487 1487 1486 1487 1488 1488 1488 1488 1489 1490 1490 1491 1492 1492 1492 1493 1493 1493 1493 1493 1493 1492 1492
1502 1506 1502 1482 1480 1485 1489 1485 1485 1485 1485 1485 1485 1485 1486 1486 1485 1485 1485 1485 1485 1485 1485 1485 1485 1486 1486 1485 1485 1486 1486 1487 1487 1488 1489 1489 1489 1489 1489 1489 1489 1488 1488 1487
1494 1497 1487 1482 1482 1483 1482 1483 1483 1484 1485 1485 1484 1484 1484 1484 1484 1484 1483 1483 1483 1482 1482 1482 1483 1483 1482 1483 1483 1483 1483 1483 1484 1484 1485 1485 1485 1485 1485 1485 1485 1484 1483 1483
1489 1487 1484 1483 1482 1482 1482 1482 1483 1483 1484 1484 1483 1483 1483 1483 1482 1482 1481 1481 1481 1480 1480 1479 1479 1479 1479 1479 1480 1479 1479 1479 1480 1480 1480 1481 1481 1481 1481 1480 1480 1479 1479 1478
1489 1486 1484 1484 1483 1482 1482 1482 1482 1482 1482 1482 1482 1482 1482 1481 1480 1480 1479 1479 1478 1478 1477 1477 1476 1475 1475 1476 1476 1476 1476 1476 1475 1476 1476 1476 1476 1476 1476 1476 1476 1475 1474 1474
1489 1485 1485 1484 1483 1482 1481 1481 1481 1481 1480 1480 1480 1480 1479 1479 1478 1478 1477 1476 1476 1475 1474 1474 1473 1472 1472 1473 1473 1472 1472 1472 1472 1471 1471 1471 1472 1472 1472 1472 1471 1471 1471 1471
1482 1482 1481 1481 1481 1480 1479 1479 1479 1479 1478 1478 1477 1477 1477 1476 1476 1475 1474 1473 1473 1472 1471 1471 1470 1469 1469 1469 1469 1469 1469 1469 1468 1468 1468 1467 1467 1467 1467 1467 1467 1467 1466 1466
1479 1479 1479 1478 1478 1477 1477 1477 1476 1476 1475 1475 1474 1474 1474 1473 1473 1472 1471 1470 1470 1469 1468 1468 1467 1466 1466 1466 1466 1466 1466 1466 1465 1464 1464 1464 1464 1464 1463 1463 1463 1463 1463 1463
1478 1477 1477 1476 1475 1475 1474 1474 1473 1472 1472 1472 1471 1471 1470 1470 1469 1468 1468 1468 1467 1466 1465 1465 1464 1464 1464 1464 1464 1463 1463 1463 1462 1461 1461 1460 1460 1460 1460 1459 1459 1459 1459 1459
1476 1475 1474 1474 1473 1472 1472 1471 1470 1469 1469 1468 1468 1467 1467 1466 1465 1465 1465 1464 1463 1462 1462 1462 1462 1461 1461 1460 1460 1460 1459 1459 1459 1458 1458 1457 1457 1457 1457 1456 1456 1457 1456 1457
1473 1472 1472 1471 1470 1469 1469 1468 1467 1466 1465 1464 1464 1464 1464 1463 1462 1461 1461 1461 1461 1459 1459 1460 1459 1459 1458 1457 1456 1456 1456 1455 1455 1456 1455 1454 1454 1455 1455 1454 1454 1454 1454 1455
1471 1470 1469 1468 1467 1466 1465 1465 1464 1462 1461 1460 1460 1460 1460 1459 1459 1459 1458 1458 1457 1457 1457 1457 1457 1456 1455 1455 1454 1453 1453 1453 1453 1453 1453 1453 1452 1453 1453 1453 1452 1452 1452 1453
1468 1467 1466 1465 1465 1463 1462 1461 1460 1459 1458 1457 1457 1457 1457 1457 1457 1457 1456 1456 1456 1455 1455 1455 1454 1454 1453 1452 1452 1452 1451 1451 1451 1451 1451 1451 1451 1452 1452 1452 1452 1451 1452 1452
1465 1464 1464 1463 1462 1461 1460 1459 1458 1457 1457 1456 1456 1456 1455 1455 1455 1455 1455 1455 1454 1454 1454 1454 1453 1452 1451 1451 1450 1450 1450 1450 1450 1450 1450 1451 1451 1451 1451 1451 1451 1451 1451 1451
1464 1463 1462 1461 1460 1459 1458 1457 1456 1456 1455 1455 1455 1455 1455 1454 1454 1453 1453 1452 1453 1453 1453 1452 1451 1450 1450 1449 1449 1448 1448 1448 1449 1449 1450 1450 1451 1451 1451 1451 1451 1451 1451 1451
1463 1462 1461 1460 1459 1458 1457 1456 1455 1455 1455 1454 1454 1454 1454 1453 1452 1452 1452 1452 1452 1452 1451 1450 1450 1450 1449 1449 1448 1448 1448 1447 1448 1449 1449 1450 1450 1450 1450 1450 1449 1449 1449 1450
1462 1461 1459 1458 1457 1456 1456 1455 1454 1454 1454 1454 1454 1453 1453 1452 1452 1451 1451 1451 1452 1451 1450 1450 1449 1449 1448 1448 1448 1448 1449 1448 1448 1449 1449 1450 1450 1449 1449 1449 1449 1449 1449 1449
1461 1460 1458 1457 1457 1456 1455 1455 1454 1454 1453 1453 1453 1452 1452 1451 1450 1451 1451 1451 1451 1450 1450 1449 1449 1449 1448 1448 1448 1448 1449 1449 1449 1449 1449 1449 1449 1448 1448 1448 1448 1448 1448 1448
1461 1460 1458 1457 1456 1455 1455 1455 1454 1454 1454 1454 1453 1453 1452 1451 1451 1451 1451 1451 1451 1450 1450 1450 1450 1449 1449 1449 1449 1450 1450 1450 1449 1449 1448 1448 1448 1448 1447 1447 1447 1447 1447 1447
1460 1459 1458 1457 1457 1456 1455 1455 1454 1454 1454 1454 1454 1453 1453 1452 1451 1451 1451 1451 1451 1451 1451 1450 1450 1450 1451 1450 1450 1450 1450 1450 1449 1449 1449 1448 1448 1448 1447 1446 1446 1446 1446 1446
1460 1459 1458 1457 1457 1456 1456 1455 1455 1455 1455 1455 1454 1454 1454 1453 1452 1452 1452 1451 1451 1451 1451 1451 1451 1451 1451 1451 1451 1451 1450 1450 1450 1449 1449 1448 1447 1447 1446 1446 1445 1445 1445 1445